Weather History for KHSP - December, 2014

Change the Weather History Date:

Tuesday, December 16, 2014

  Actual Average Record
Temperature  
Mean Temperature 42 °F -  
Max Temperature 48 °F 36 °F 51 °F (1997)
Min Temperature 36 °F 22 °F 12 °F (2010)
Degree Days  
Heating Degree Days 23    
Moisture  
Dew Point 36 °F    
Average Humidity 80    
Maximum Humidity 100    
Minimum Humidity 40    
Precipitation  
Precipitation 0.08 in - - ()
Sea Level Pressure  
Sea Level Pressure 29.86 in    
Wind  
Wind Speed 11 mph (WSW)    
Max Wind Speed 25 mph    
Max Gust Speed 36 mph    
Visibility 8 miles    
Events Fog , Rain , Snow    
Averages and records for this station are not official NWS values.
T = Trace of Precipitation, MM = Missing Value Source: NWS Daily Summary

Daily Weather History Graph

Daily Weather History Graph

Search for Another Location

Airport or City:

Trip Planner

Search our weather history database for the weather conditions in past years. The results will help you decide how hot, cold, wet, or windy it might be!

Date:

Astronomy

Dec. 16, 2014 Rise Set
Actual Time 7:28 AM EST 5:01 PM EST
Civil Twilight 6:59 AM EST 5:30 PM EST
Nautical Twilight 6:26 AM EST 6:03 PM EST
Astronomical Twilight 5:54 AM EST 6:35 PM EST
Moon 1:47 AM EST (12/16) 1:26 PM EST (12/16)
Length of Visible Light 10h 31m
Length of Day
9h 32m
Waning Crescent, 30% of the Moon is Illuminated
Dec 16
Waning Crescent
Dec 21
New
Dec 28
First Quarter
Jan 4
Full
Jan 13
Last Quarter

Hourly Weather History & Observations

Time (EST) Temp. Windchill Dew Point Humidity Pressure Visibility Wind Dir Wind Speed Gust Speed Precip Events Conditions
12:15 AM 41.2 °F 36.6 °F 27.5 °F 58% 29.96 in 10.0 mi SW 6.9 mph - N/A   Clear
12:35 AM 43.0 °F 38.8 °F 25.5 °F 50% 29.95 in 10.0 mi South 6.9 mph - N/A   Clear
12:55 AM 41.7 °F 37.3 °F 28.9 °F 61% 29.94 in 10.0 mi South 6.9 mph - N/A   Clear
1:15 AM 42.6 °F 39.0 °F 27.0 °F 54% 29.93 in 10.0 mi South 5.8 mph - N/A   Clear
1:35 AM 41.9 °F 36.9 °F 27.3 °F 56% 29.93 in 10.0 mi South 8.1 mph - N/A   Clear
1:55 AM 42.8 °F 37.5 °F 27.0 °F 54% 29.92 in 10.0 mi South 9.2 mph - N/A   Clear
2:15 AM 43.0 °F 39.5 °F 26.6 °F 52% 29.93 in 10.0 mi South 5.8 mph - N/A   Clear
2:35 AM 42.1 °F 36.6 °F 27.0 °F 55% 29.93 in 10.0 mi SW 9.2 mph - N/A   Scattered Clouds
2:55 AM 44.1 °F 40.8 °F 26.6 °F 50% 29.93 in 10.0 mi SSW 5.8 mph - N/A   Scattered Clouds
3:15 AM 45.5 °F 41.3 °F 25.5 °F 46% 29.93 in 10.0 mi SSW 8.1 mph - N/A   Mostly Cloudy
3:35 AM 40.8 °F 35.0 °F 30.2 °F 66% 29.92 in 10.0 mi South 9.2 mph - N/A   Mostly Cloudy
3:55 AM 44.2 °F 40.3 °F 24.6 °F 46% 29.91 in 10.0 mi SSW 6.9 mph - N/A   Scattered Clouds
4:15 AM 45.9 °F 42.3 °F 25.2 °F 44% 29.90 in 10.0 mi South 6.9 mph - N/A   Clear
4:35 AM 45.0 °F 39.3 °F 25.2 °F 46% 29.89 in 10.0 mi South 11.5 mph 16.1 mph N/A   Clear
4:55 AM 46.8 °F - 23.2 °F 40% 29.89 in 10.0 mi SSW 11.5 mph - N/A   Mostly Cloudy
5:15 AM 44.1 °F 37.7 °F 25.7 °F 49% 29.88 in 10.0 mi South 12.7 mph 17.3 mph N/A   Mostly Cloudy
5:35 AM 45.5 °F 41.8 °F 27.0 °F 48% 29.89 in 10.0 mi South 6.9 mph 18.4 mph N/A   Mostly Cloudy
5:55 AM 41.0 °F 36.4 °F 29.8 °F 64% 29.89 in 10.0 mi South 6.9 mph - N/A   Mostly Cloudy
6:15 AM 42.4 °F 37.0 °F 30.7 °F 63% 29.89 in 10.0 mi SSW 9.2 mph 16.1 mph N/A   Overcast
6:35 AM 45.0 °F 38.5 °F 32.7 °F 62% 29.89 in 10.0 mi SW 13.8 mph 21.9 mph N/A   Overcast
6:55 AM 43.3 °F 37.7 °F 36.0 °F 75% 29.88 in 10.0 mi South 10.4 mph - N/A Rain Light Rain
7:15 AM 42.8 °F 37.5 °F 34.9 °F 74% 29.87 in 10.0 mi South 9.2 mph - N/A   Mostly Cloudy
7:35 AM 41.7 °F 36.7 °F 33.4 °F 72% 29.87 in 10.0 mi SSW 8.1 mph 16.1 mph N/A   Overcast
7:55 AM 42.1 °F 35.7 °F 35.1 °F 76% 29.87 in 10.0 mi SSW 11.5 mph 18.4 mph N/A   Overcast
8:15 AM 43.9 °F 36.2 °F 37.6 °F 78% 29.88 in 10.0 mi WSW 17.3 mph 25.3 mph N/A Rain Light Rain
8:35 AM 41.9 °F 35.4 °F 38.3 °F 87% 29.87 in 5.0 mi SW 11.5 mph 18.4 mph 0.03 in Rain Light Rain
8:55 AM 42.4 °F 34.7 °F 41.5 °F 97% 29.87 in 7.0 mi WSW 16.1 mph - 0.04 in Rain Rain
9:15 AM 42.1 °F 35.7 °F 42.1 °F 100% 29.86 in 7.0 mi WSW 11.5 mph - 0.02 in Rain Rain
9:35 AM 42.1 °F 35.7 °F 42.1 °F 100% 29.87 in 7.0 mi SW 11.5 mph 18.4 mph 0.02 in   Light Drizzle
9:55 AM 41.4 °F 34.7 °F 41.4 °F 100% 29.87 in 5.0 mi WSW 11.5 mph - 0.02 in   Overcast
10:15 AM 42.8 °F 39.3 °F 42.8 °F 100% 29.87 in 7.0 mi SW 5.8 mph - N/A   Mostly Cloudy
10:35 AM 42.4 °F 37.0 °F 42.4 °F 100% 29.86 in 5.0 mi WSW 9.2 mph - N/A   Scattered Clouds
10:55 AM 44.8 °F 39.4 °F 44.8 °F 100% 29.85 in 7.0 mi WSW 10.4 mph - N/A   Mostly Cloudy
11:15 AM 45.9 °F 39.4 °F 45.3 °F 98% 29.83 in 10.0 mi WSW 15.0 mph - N/A   Mostly Cloudy
11:35 AM 46.6 °F - 45.3 °F 95% 29.83 in 10.0 mi WSW 17.3 mph 21.9 mph N/A   Mostly Cloudy
11:55 AM 45.7 °F 38.8 °F 44.2 °F 95% 29.82 in 10.0 mi WSW 16.1 mph 19.6 mph N/A   Mostly Cloudy
12:15 PM 48.4 °F - 43.7 °F 84% 29.81 in 10.0 mi WSW 20.7 mph 26.5 mph N/A   Mostly Cloudy
12:35 PM 47.8 °F - 41.5 °F 79% 29.80 in 10.0 mi West 17.3 mph 28.8 mph N/A   Mostly Cloudy
12:55 PM 47.5 °F - 40.8 °F 78% 29.80 in 10.0 mi West 17.3 mph 26.5 mph N/A   Mostly Cloudy
1:15 PM 47.5 °F - 40.1 °F 76% 29.79 in 10.0 mi West 17.3 mph 29.9 mph N/A   Scattered Clouds
1:35 PM 47.8 °F - 39.7 °F 74% 29.79 in 10.0 mi West 18.4 mph 25.3 mph N/A   Scattered Clouds
1:55 PM 47.7 °F - 39.7 °F 74% 29.78 in 10.0 mi West 15.0 mph 20.7 mph N/A   Mostly Cloudy
2:15 PM 46.4 °F 40.7 °F 39.4 °F 77% 29.78 in 10.0 mi West 12.7 mph 19.6 mph N/A   Overcast
2:35 PM 47.3 °F - 39.2 °F 73% 29.78 in 10.0 mi WSW 16.1 mph 19.6 mph N/A   Overcast
2:55 PM 47.7 °F - 38.1 °F 70% 29.78 in 10.0 mi West 19.6 mph 25.3 mph N/A   Mostly Cloudy
3:15 PM 46.9 °F - 38.1 °F 71% 29.79 in 10.0 mi West 16.1 mph 23.0 mph N/A   Overcast
3:35 PM 46.2 °F 38.5 °F 37.8 °F 72% 29.79 in 10.0 mi West 20.7 mph 29.9 mph N/A   Overcast
3:55 PM 45.9 °F 40.0 °F 38.3 °F 75% 29.80 in 10.0 mi West 12.7 mph 23.0 mph N/A   Overcast
4:15 PM 45.5 °F 38.6 °F 38.3 °F 76% 29.81 in 10.0 mi West 16.1 mph 25.3 mph N/A   Overcast
4:35 PM 43.3 °F 35.5 °F 41.0 °F 91% 29.82 in 5.0 mi West 17.3 mph 24.2 mph N/A Rain Light Rain
4:55 PM 42.4 °F 34.7 °F 42.4 °F 100% 29.82 in 1.0 mi West 16.1 mph 21.9 mph N/A Rain Light Rain
5:15 PM 42.3 °F 35.1 °F 42.3 °F 100% 29.83 in 0.2 mi West 13.8 mph 19.6 mph N/A Rain Light Rain
5:35 PM 41.0 °F 33.1 °F 41.0 °F 100% 29.83 in 1.0 mi WNW 15.0 mph 24.2 mph 0.02 in Rain Light Rain
5:55 PM 41.0 °F 32.8 °F 41.0 °F 100% 29.84 in 0.5 mi West 16.1 mph 23.0 mph 0.02 in Rain Light Rain
6:15 PM 40.8 °F 32.9 °F 40.8 °F 100% 29.86 in 0.8 mi West 15.0 mph 20.7 mph N/A   Overcast
6:35 PM 40.3 °F 32.6 °F 40.3 °F 100% 29.86 in 10.0 mi West 13.8 mph 23.0 mph N/A   Overcast
6:55 PM 39.7 °F 31.2 °F 39.7 °F 100% 29.86 in 5.0 mi West 16.1 mph 23.0 mph N/A   Overcast
7:15 PM 39.4 °F 30.1 °F 39.4 °F 100% 29.86 in 10.0 mi West 18.4 mph 21.9 mph N/A   Overcast
7:35 PM 39.4 °F 31.1 °F 39.4 °F 100% 29.87 in 10.0 mi West 15.0 mph 23.0 mph N/A   Overcast
7:55 PM 38.8 °F 29.7 °F 38.8 °F 100% 29.86 in 1.8 mi West 17.3 mph 24.2 mph N/A Rain Light Rain
8:15 PM 38.3 °F 27.6 °F 38.3 °F 100% 29.86 in 10.0 mi West 23.0 mph 31.1 mph N/A   Overcast
8:35 PM 38.3 °F 27.1 °F 38.3 °F 100% 29.86 in 10.0 mi WNW 25.3 mph 33.4 mph N/A   Overcast
8:55 PM 38.3 °F 28.4 °F 38.1 °F 99% 29.87 in 10.0 mi West 19.6 mph 35.7 mph N/A   Overcast
9:15 PM 37.4 °F 27.5 °F 37.4 °F 100% 29.87 in 1.2 mi West 18.4 mph 25.3 mph N/A   Overcast
9:35 PM 37.4 °F 26.9 °F 37.4 °F 100% 29.87 in 10.0 mi WNW 20.7 mph 31.1 mph N/A   Overcast
9:55 PM 37.4 °F 27.5 °F 37.4 °F 100% 29.87 in 0.2 mi West 18.4 mph 27.6 mph N/A Snow Light Snow
10:15 PM 37.4 °F 26.6 °F 37.4 °F 100% 29.87 in 0.2 mi West 21.9 mph 31.1 mph N/A Fog Fog
10:35 PM 37.0 °F 25.9 °F 37.0 °F 100% 29.87 in 0.2 mi West 23.0 mph 31.1 mph N/A Fog Fog
10:55 PM 36.7 °F 26.3 °F 36.7 °F 100% 29.88 in 0.8 mi WNW 19.6 mph 28.8 mph N/A   Overcast
11:15 PM 36.7 °F 26.3 °F 36.7 °F 100% 29.88 in 7.0 mi WNW 19.6 mph 27.6 mph N/A   Overcast
11:35 PM 36.5 °F 26.0 °F 36.5 °F 100% 29.88 in 10.0 mi WNW 19.6 mph 29.9 mph N/A   Overcast
11:55 PM 36.5 °F 26.3 °F 36.5 °F 100% 29.89 in 10.0 mi West 18.4 mph 26.5 mph N/A   Overcast